This demonstration page uses our WeatherBlox Daily Observations layout. Learn more.

Left ArrowRight Arrow

Hourly Observations for August 26, 2021

Temp ( °F °C ) Dew Point ( °F °C ) Humidity (%) Winds ( mph kmh ) Pressure ( in mb ) Visibility ( mi km ) Precip ( " mm )
12:51 am 00:51 Clear 80 26.7 58 14.4 47 47 N 6 9 29.79 1009 10 16 0.00 0.00
1:51 am 01:51 Clear 80 26.7 57 13.9 45 45 Calm 29.78 1009 10 16 0.00 0.00
2:51 am 02:51 Clear 79 26.1 55 12.8 44 44 E 6 9 29.78 1009 10 16 0.00 0.00
3:51 am 03:51 Clear 76 24.4 57 13.9 52 52 WNW 3 6 29.80 1009 10 16 0.00 0.00
4:51 am 04:51 Clear 77 25 55 12.8 47 47 ESE 6 9 29.80 1009 10 16 0.00 0.00
5:51 am 05:51 Sunny 78 25.6 53 11.7 42 42 E 7 11 29.81 1010 10 16 0.00 0.00
6:51 am 06:51 Sunny 80 26.7 54 12.2 41 41 ESE 6 9 29.83 1010 10 16 0.00 0.00
7:51 am 07:51 Sunny 83 28.3 55 12.8 38 38 SE 12 19 29.85 1011 10 16 0.00 0.00
8:51 am 08:51 Sunny 88 31.1 55 12.8 33 33 SE 10 17 29.85 1011 10 16 0.00 0.00
9:51 am 09:51 Sunny 91 32.8 56 13.3 31 31 SSE 7 11 29.84 1011 10 16 0.00 0.00
10:51 am 10:51 Sunny 94 34.4 56 13.3 28 28 S 7 11 29.83 1010 10 16 0.00 0.00
11:51 am 11:51 Sunny 97 36.1 56 13.3 25 25 undefined N/A 29.80 1009 10 16 0.00 0.00
12:51 pm 12:51 Sunny 100 37.8 56 13.3 23 23 undefined N/A 29.76 1008 10 16 0.00 0.00
1:51 pm 13:51 Sunny 98 36.7 55 12.8 24 24 WSW 9 15 29.75 1007 10 16 0.00 0.00
2:51 pm 14:51 Sunny 97 36.1 55 12.8 24 24 W 9 15 29.72 1006 10 16 0.00 0.00
3:51 pm 15:51 Sunny 97 36.1 56 13.3 25 25 NNW 8 13 29.72 1006 10 16 0.00 0.00
4:51 pm 16:51 Sunny 98 36.7 54 12.2 23 23 NW 7 11 29.70 1006 10 16 0.00 0.00
5:51 pm 17:51 Sunny 95 35 57 13.9 28 28 N 10 17 29.70 1006 10 16 0.00 0.00
6:51 pm 18:51 Partly Cloudy 92 33.3 56 13.3 30 30 E 14 22 29.73 1007 10 16 0.00 0.00
7:51 pm 19:51 Clear 90 32.2 53 11.7 28 28 E 15 24 29.74 1007 10 16 0.00 0.00
8:51 pm 20:51 Clear 88 31.1 55 12.8 33 33 SSE 9 15 29.76 1008 10 16 0.00 0.00
9:51 pm 21:51 Clear 87 30.6 54 12.2 32 32 E 10 17 29.75 1007 10 16 0.00 0.00
10:51 pm 22:51 Clear 85 29.4 54 12.2 35 35 ESE 6 9 29.73 1007 10 16 0.00 0.00
11:51 pm 23:51 Clear 83 28.3 55 12.8 38 38 E 8 13 29.72 1007 10 16 0.00 0.00

Powered by AerisWeather